Coolidge Muni, Coolidge, AZ

1:21 AM MST on December 06, 2019 (GMT -0700)
Coolidge Muni, Coolidge

Weather History for KP08 - September, 2019

Change the Weather History Date:

Tuesday, September 24, 2019

  Actual Average (KCGZ) Record (KCGZ)
Temperature  
Mean Temperature 75 °F -  
Max Temperature 84 °F 93 °F 102 °F (2002)
Min Temperature 66 °F 66 °F 53 °F (2016)
Cooling Degree Days 10    
Growing Degree Days 25 (Base 50)    
Moisture  
Dew Point 59 °F    
Average Humidity 61    
Maximum Humidity 88    
Minimum Humidity 36    
Precipitation  
Precipitation 0.07 in - - ()
Sea Level Pressure  
Sea Level Pressure 29.92 in    
Wind  
Wind Speed 7 mph ()    
Max Wind Speed 16 mph    
Max Gust Speed 25 mph    
Visibility 9.9 miles    
Events Rain    
Averages and records for this station are not official NWS values.
T = Trace of Precipitation, MM = Missing Value Source: Averaged Metar Reports

Daily Weather History Graph

Daily Weather History Graph

Search for Another Location

Airport or City:

Astronomy

Sep. 24, 2019 Rise Set
Actual Time 6:15 AM MST 6:19 PM MST
Civil Twilight 5:50 AM MST 6:44 PM MST
Nautical Twilight 5:21 AM MST 7:13 PM MST
Astronomical Twilight 4:52 AM MST 7:42 PM MST
Moon 1:23 AM MST (9/24) 3:50 PM MST (9/24)
Length of Visible Light 12h 54m
Length of Day
12h 04m
Waning Crescent, 22% of the Moon is Illuminated
Sep 24
Waning Crescent
Sep 28
New
Oct 5
First Quarter
Oct 13
Full
Oct 21
Last Quarter

Hourly Weather History & Observations

Time (MST) Temp. Heat Index Dew Point Humidity Pressure Visibility Wind Dir Wind Speed Gust Speed Precip Events Conditions
12:15 AM 77.0 °F - 51.8 °F 41% 29.94 in 10.0 mi East 12.7 mph - N/A   Mostly Cloudy
12:35 AM 77.0 °F - 50.0 °F 39% 29.95 in 10.0 mi ENE 9.2 mph - N/A   Overcast
12:55 AM 77.0 °F - 48.2 °F 36% 29.96 in 10.0 mi East 11.5 mph 17.3 mph N/A   Mostly Cloudy
1:15 AM 77.0 °F - 48.2 °F 36% 29.96 in 10.0 mi East 8.1 mph - N/A   Overcast
1:35 AM 77.0 °F - 50.0 °F 39% 29.98 in 10.0 mi NNE 15.0 mph 25.3 mph N/A   Overcast
1:55 AM 73.4 °F - 57.2 °F 57% 29.98 in 10.0 mi North 15.0 mph - N/A   Mostly Cloudy
2:15 AM 71.6 °F - 57.2 °F 60% 29.98 in 10.0 mi North 11.5 mph - N/A   Partly Cloudy
2:35 AM 69.8 °F - 57.2 °F 64% 29.96 in 10.0 mi North 8.1 mph - N/A   Clear
2:55 AM 69.8 °F - 59.0 °F 68% 29.95 in 10.0 mi North 8.1 mph - N/A   Clear
3:15 AM 69.8 °F - 59.0 °F 68% 29.94 in 10.0 mi North 8.1 mph - N/A   Clear
3:35 AM 69.8 °F - 59.0 °F 68% 29.94 in 10.0 mi NE 5.8 mph - N/A   Clear
3:55 AM 69.8 °F - 59.0 °F 68% 29.94 in 10.0 mi Calm Calm - N/A   Mostly Cloudy
4:15 AM 69.8 °F - 60.8 °F 73% 29.93 in 10.0 mi NE 10.4 mph - N/A   Light Drizzle
4:35 AM 68.0 °F - 60.8 °F 78% 29.92 in 10.0 mi NE 5.8 mph - N/A Rain Light Rain
4:55 AM 69.8 °F - 60.8 °F 73% 29.95 in 10.0 mi NE 4.6 mph - N/A   Mostly Cloudy
5:15 AM 69.8 °F - 60.8 °F 73% 29.94 in 10.0 mi North 3.5 mph - N/A   Mostly Cloudy
5:35 AM 69.8 °F - 59.0 °F 68% 29.95 in 9.0 mi Calm Calm - N/A Rain Light Rain
5:55 AM 68.0 °F - 62.6 °F 83% 29.95 in 10.0 mi WNW 9.2 mph - 0.01 in   Light Drizzle
6:15 AM 68.0 °F - 60.8 °F 78% 29.95 in 10.0 mi NNW 6.9 mph - N/A   Light Drizzle
6:35 AM 68.0 °F - 60.8 °F 78% 29.95 in 10.0 mi NE 4.6 mph - N/A   Light Drizzle
6:55 AM 68.0 °F - 62.6 °F 83% 29.97 in 10.0 mi SE 11.5 mph - N/A   Light Drizzle
7:15 AM 68.0 °F - 62.6 °F 83% 29.99 in 9.0 mi WSW 5.8 mph - N/A Rain Light Rain
7:35 AM 68.0 °F - 62.6 °F 83% 30.00 in 10.0 mi SSW 3.5 mph - N/A Rain Light Rain
7:55 AM 68.0 °F - 62.6 °F 83% 29.98 in 10.0 mi North 8.1 mph - 0.01 in   Partly Cloudy
8:15 AM 68.0 °F - 62.6 °F 83% 30.00 in 10.0 mi Calm Calm - N/A   Clear
8:35 AM 68.0 °F - 64.4 °F 88% 30.03 in 5.0 mi SSW 5.8 mph - N/A Rain Light Rain
8:55 AM 66.2 °F - 62.6 °F 88% 30.02 in 7.0 mi SE 4.6 mph - 0.04 in Rain Light Rain
9:15 AM 68.0 °F - 64.4 °F 88% 29.99 in 10.0 mi East 13.8 mph - N/A   Light Drizzle
9:35 AM 68.0 °F - 62.6 °F 83% 29.99 in 10.0 mi ESE 8.1 mph - N/A   Light Drizzle
9:55 AM 66.2 °F - 62.6 °F 88% 29.96 in 10.0 mi ENE 16.1 mph 23.0 mph 0.01 in   Light Drizzle
10:15 AM 68.0 °F - 64.4 °F 88% 29.98 in 10.0 mi ENE 9.2 mph - N/A Rain Light Rain
10:35 AM 68.0 °F - 64.4 °F 88% 29.97 in 10.0 mi NE 9.2 mph - N/A   Light Drizzle
10:55 AM 69.8 °F - 64.4 °F 83% 29.96 in 10.0 mi NNE 3.5 mph 11.5 mph N/A   Clear
11:10 AM 71.6 °F - 64.4 °F 78% 29.94 in 10.0 mi Variable 4.6 mph 11.5 mph N/A   Clear
11:35 AM 73.4 °F - 60.8 °F 65% 29.94 in 10.0 mi Calm Calm - N/A   Clear
11:55 AM 75.2 °F - 62.6 °F 65% 29.94 in 10.0 mi Calm Calm - N/A   Clear
12:15 PM 75.2 °F - 62.6 °F 65% 29.93 in 10.0 mi NW 5.8 mph - N/A   Clear
12:35 PM 75.2 °F - 60.8 °F 61% 29.92 in 10.0 mi Variable 3.5 mph - N/A   Clear
12:55 PM 77.0 °F - 59.0 °F 54% 29.91 in 10.0 mi Calm Calm - N/A   Clear
1:15 PM 77.0 °F - 59.0 °F 54% 29.90 in 10.0 mi Variable 4.6 mph - N/A   Clear
1:35 PM 78.8 °F - 59.0 °F 51% 29.90 in 10.0 mi Calm Calm - N/A   Clear
1:55 PM 78.8 °F - 59.0 °F 51% 29.89 in 10.0 mi Calm Calm - N/A   Clear
2:15 PM 80.6 °F 81.1 °F 59.0 °F 48% 29.89 in 10.0 mi Calm Calm - N/A   Clear
2:35 PM 80.6 °F 81.1 °F 59.0 °F 48% 29.88 in 10.0 mi Variable 3.5 mph - N/A   Clear
2:55 PM 80.6 °F 80.5 °F 55.4 °F 42% 29.87 in 10.0 mi Calm Calm - N/A   Clear
3:15 PM 82.4 °F 81.7 °F 55.4 °F 39% 29.85 in 10.0 mi East 5.8 mph 15.0 mph N/A   Clear
3:35 PM 82.4 °F 81.7 °F 55.4 °F 39% 29.85 in 10.0 mi Variable 4.6 mph - N/A   Clear
3:55 PM 82.4 °F 81.7 °F 55.4 °F 39% 29.85 in 10.0 mi Variable 4.6 mph - N/A   Clear
4:15 PM 84.2 °F 83.0 °F 55.4 °F 37% 29.85 in 10.0 mi ENE 6.9 mph 13.8 mph N/A   Clear
4:30 PM 82.4 °F 81.4 °F 53.6 °F 37% 29.85 in 10.0 mi Variable 3.5 mph - N/A   Clear
4:50 PM 82.4 °F 81.4 °F 53.6 °F 37% 29.85 in 10.0 mi Variable 3.5 mph - N/A   Clear
5:15 PM 82.4 °F 81.7 °F 55.4 °F 39% 29.84 in 10.0 mi Variable 5.8 mph - N/A   Clear
5:35 PM 82.4 °F 81.7 °F 55.4 °F 39% 29.84 in 10.0 mi NNE 9.2 mph - N/A   Clear
5:55 PM 80.6 °F 80.8 °F 57.2 °F 45% 29.85 in 10.0 mi NE 16.1 mph - N/A   Clear
6:15 PM 78.8 °F - 57.2 °F 47% 29.85 in 10.0 mi East 12.7 mph - N/A   Clear
6:35 PM 77.0 °F - 57.2 °F 50% 29.85 in 10.0 mi ENE 16.1 mph - N/A   Clear
6:55 PM 77.0 °F - 57.2 °F 50% 29.85 in 10.0 mi ENE 12.7 mph - N/A   Clear
7:15 PM 77.0 °F - 59.0 °F 54% 29.85 in 10.0 mi ENE 12.7 mph - N/A   Clear
7:35 PM 77.0 °F - 59.0 °F 54% 29.86 in 10.0 mi East 13.8 mph - N/A   Clear
7:55 PM 77.0 °F - 59.0 °F 54% 29.86 in 10.0 mi East 10.4 mph - N/A   Clear
8:15 PM 75.2 °F - 59.0 °F 57% 29.87 in 10.0 mi ENE 6.9 mph - N/A   Clear
8:35 PM 75.2 °F - 59.0 °F 57% 29.87 in 10.0 mi ENE 8.1 mph - N/A   Clear
8:55 PM 75.2 °F - 59.0 °F 57% 29.87 in 10.0 mi ENE 11.5 mph - N/A   Clear
9:15 PM 75.2 °F - 59.0 °F 57% 29.87 in 10.0 mi ENE 5.8 mph - N/A   Clear
9:35 PM 75.2 °F - 57.2 °F 53% 29.87 in 10.0 mi East 9.2 mph - N/A   Clear
9:55 PM 75.2 °F - 57.2 °F 53% 29.87 in 10.0 mi East 8.1 mph - N/A   Scattered Clouds
10:15 PM 75.2 °F - 57.2 °F 53% 29.87 in 10.0 mi East 9.2 mph - N/A   Scattered Clouds
10:35 PM 75.2 °F - 57.2 °F 53% 29.86 in 10.0 mi ESE 11.5 mph - N/A   Mostly Cloudy
10:55 PM 75.2 °F - 57.2 °F 53% 29.87 in 10.0 mi ESE 13.8 mph - N/A   Overcast
11:15 PM 75.2 °F - 57.2 °F 53% 29.87 in 10.0 mi ESE 11.5 mph - N/A   Overcast
11:35 PM 75.2 °F - 59.0 °F 57% 29.87 in 10.0 mi ESE 9.2 mph - N/A   Overcast
11:55 PM 75.2 °F - 59.0 °F 57% 29.86 in 10.0 mi SE 8.1 mph - N/A   Overcast